sat.trackr.live / text

‹ back to catalog

STARLINK-36283

NORAD 67197 · 2025-304F

PAYLOAD ACTIVE UNKNOWN

§ Identity

Operator
Country
US
Launch date
2025-12-17
Launch site
AFWTR
Launch vehicle
Mass (kg)
RCS (m²)

Purposes: comms

External: N2YO · Heavens-Above · Gunter

§ Orbital elements

Epoch: 2026-09-19T16:00:25.807104Z

Period
96.11 min
Inclination
70.0016°
Eccentricity
0.0002926
Mean motion
14.98331741 rev/d
Perigee alt
570.0 km
Apogee alt
574.1 km
Semi-major
6,950.2 km
B*
3.0157e-4
RAAN
45.2462°
Arg perigee
270.6888°
Mean anomaly
89.3936°
Rev number
4,294

§ Raw data

STARLINK-362831 67197U 25304F   26262.66696536  .00003507  00000+0  30157-3 0  99922 67197  70.0016  45.2462 0002926 270.6888  89.3936 14.98331741 42945

JSON: /api/v1/satellites/67197 · /tle

For live sub-satellite position, see the globe view (requires WebGL).

§ Visibility from observer

Set your observer location to see the next 7 days of passes ≥ 10°. The values pass through the URL so the page stays shareable.

No JS? Fill the form by hand. The geolocation button needs JavaScript.